This demonstration page uses our WeatherBlox Daily Observations layout. Learn more.

Left ArrowRight Arrow

36.17497, -115.13722

Hourly Observations for December 16, 2019

Temp ( °F °C ) Dew Point ( °F °C ) Humidity (%) Winds ( mph kmh ) Pressure ( in mb ) Visibility ( mi km ) Precip ( " mm )
12:53 am 00:53 Clear 44 6.7 22 -5.6 41 41 N 8 13 30.25 1025 10 16 0.00 0.00
1:53 am 01:53 Clear 43 6.1 22 -5.6 43 43 N 8 13 30.28 1025 10 16 0.00 0.00
2:53 am 02:53 Clear 43 6.1 20 -6.7 40 40 NNE 6 9 30.30 1026 10 16 0.00 0.00
3:53 am 03:53 Clear 43 6.1 19 -7.2 38 38 NNW 9 15 30.32 1027 10 16 0.00 0.00
4:53 am 04:53 Clear 42 5.6 19 -7.2 40 40 NNW 10 17 30.34 1028 10 16 0.00 0.00
5:53 am 05:53 Clear 42 5.6 18 -7.8 38 38 NNW 10 17 30.38 1029 10 16 0.00 0.00
6:53 am 06:53 Sunny 42 5.6 17 -8.3 36 36 NNW 7 11 30.42 1030 10 16 0.00 0.00
7:53 am 07:53 Sunny 45 7.2 16 -8.9 31 31 N 9 15 30.44 1031 10 16 0.00 0.00
8:53 am 08:53 Sunny 46 7.8 17 -8.3 31 31 NNW 10 17 30.48 1032 10 16 0.00 0.00
9:53 am 09:53 Sunny 47 8.3 16 -8.9 29 29 N 9 15 30.48 1032 10 16 0.00 0.00
10:53 am 10:53 Sunny 48 8.9 14 -10 25 25 NE 5 7 30.48 1032 10 16 0.00 0.00
11:53 am 11:53 Sunny 49 9.4 14 -10 25 25 VRB 6 9 30.46 1032 10 16 0.00 0.00
12:53 pm 12:53 Sunny 49 9.4 13 -10.6 23 23 ESE 5 7 30.44 1031 10 16 0.00 0.00
1:53 pm 13:53 Sunny 50 10 13 -10.6 22 22 E 13 20 30.43 1031 10 16 0.00 0.00
2:53 pm 14:53 Sunny 51 10.6 12 -11.1 21 21 ENE 13 20 30.44 1031 10 16 0.00 0.00
3:53 pm 15:53 Sunny 49 9.4 12 -11.1 22 22 NE 10 17 30.46 1032 10 16 0.00 0.00
4:53 pm 16:53 Clear 47 8.3 13 -10.6 25 25 NE 6 9 30.48 1032 10 16 0.00 0.00
5:53 pm 17:53 Clear 45 7.2 16 -8.9 31 31 ENE 6 9 30.50 1033 10 16 0.00 0.00
6:53 pm 18:53 Clear 44 6.7 17 -8.3 34 34 NW 7 11 30.53 1034 10 16 0.00 0.00
7:53 pm 19:53 Clear 43 6.1 17 -8.3 35 35 N 3 6 30.54 1034 10 16 0.00 0.00
8:53 pm 20:53 Clear 40 4.4 18 -7.8 41 41 N 6 9 30.56 1035 10 16 0.00 0.00
9:53 pm 21:53 Clear 40 4.4 16 -8.9 38 38 NNW 7 11 30.57 1035 10 16 0.00 0.00
10:53 pm 22:53 Clear 39 3.9 16 -8.9 39 39 N 5 7 30.58 1035 10 16 0.00 0.00
11:53 pm 23:53 Clear 38 3.3 16 -8.9 41 41 NNE 3 6 30.57 1035 10 16 0.00 0.00

Powered by AerisWeather